DLH8WF EDDB-EDDM

Flight info

Callsign DLH8WF
Flight time 0h 51m
Altitude 28000
Route LUROS4N LUROS Y211 BEBKU Z36 MAREM DCT VESUB T106 TUSTO T108 LANDU LANDU2A
Aircraft A320/M-SDE2E3FGIJ1LORWXYZ/HB1

Departure

Time 2026-05-04 13:07
Airport Berlin Brandenburg Airport (EDDB)

Arrival

Time 2026-05-04 13:58
Airport Munich Airport (EDDM)
Time Latitude Longitude Altitude Speed Heading
2026-05-04 12:28 52.36541 13.50495 155 ft 0 kts 69°
2026-05-04 13:00 52.36540 13.50494 155 ft 1 kts 69°
2026-05-04 13:00 52.36532 13.50457 155 ft 4 kts 69°
2026-05-04 13:00 52.36522 13.50415 155 ft 4 kts 69°
2026-05-04 13:00 52.36514 13.50383 155 ft 4 kts 84°
2026-05-04 13:01 52.36521 13.50353 155 ft 4 kts 154°
2026-05-04 13:01 52.36541 13.50339 155 ft 1 kts 159°
2026-05-04 13:01 52.36542 13.50338 155 ft 0 kts 159°
2026-05-04 13:03 52.36522 13.50351 155 ft 3 kts 159°
2026-05-04 13:04 52.36445 13.50401 155 ft 18 kts 158°
2026-05-04 13:04 52.36325 13.50475 155 ft 19 kts 160°
2026-05-04 13:04 52.36202 13.50550 155 ft 19 kts 158°
2026-05-04 13:04 52.36080 13.50630 155 ft 16 kts 159°
2026-05-04 13:05 52.35978 13.50694 155 ft 15 kts 159°
2026-05-04 13:05 52.35886 13.50751 155 ft 13 kts 159°
2026-05-04 13:05 52.35803 13.50804 155 ft 12 kts 158°
2026-05-04 13:05 52.35726 13.50842 155 ft 12 kts 180°
2026-05-04 13:06 52.35632 13.50757 154 ft 17 kts 218°
2026-05-04 13:06 52.35532 13.50625 154 ft 19 kts 219°
2026-05-04 13:06 52.35425 13.50478 154 ft 21 kts 220°
2026-05-04 13:06 52.35354 13.50262 154 ft 27 kts 249°
2026-05-04 13:07 52.35200 13.49597 155 ft 98 kts 249°
2026-05-04 13:07 52.34881 13.48260 157 ft 152 kts 248°
2026-05-04 13:07 52.34489 13.46623 761 ft 153 kts 250°
2026-05-04 13:07 52.33987 13.45058 1471 ft 158 kts 239°
2026-05-04 13:08 52.33265 13.43561 1944 ft 179 kts 230°
2026-05-04 13:08 52.32388 13.41942 2327 ft 201 kts 230°
2026-05-04 13:08 52.31423 13.40163 2790 ft 218 kts 230°
2026-05-04 13:08 52.30404 13.38291 3589 ft 222 kts 230°
2026-05-04 13:09 52.29378 13.36405 4500 ft 224 kts 230°
2026-05-04 13:09 52.28299 13.34512 5279 ft 236 kts 222°
2026-05-04 13:09 52.26749 13.33311 5792 ft 262 kts 190°
2026-05-04 13:09 52.24890 13.33447 6619 ft 272 kts 176°
2026-05-04 13:10 52.23000 13.33825 7528 ft 276 kts 175°
2026-05-04 13:10 52.21085 13.34224 8478 ft 279 kts 175°
2026-05-04 13:10 52.19149 13.34630 9417 ft 282 kts 176°
2026-05-04 13:10 52.17191 13.35033 10269 ft 288 kts 176°
2026-05-04 13:11 52.15117 13.35444 10614 ft 312 kts 176°
2026-05-04 13:11 52.12888 13.35878 11037 ft 330 kts 176°
2026-05-04 13:11 52.10581 13.36329 11762 ft 337 kts 176°
2026-05-04 13:11 52.08242 13.36792 12578 ft 340 kts 176°
2026-05-04 13:12 52.05888 13.37260 13429 ft 342 kts 176°
2026-05-04 13:12 52.03513 13.37730 14162 ft 346 kts 176°
2026-05-04 13:12 52.01929 13.38041 14614 ft 348 kts 176°
2026-05-04 13:12 51.99506 13.38514 15286 ft 352 kts 176°
2026-05-04 13:13 51.97056 13.38990 15974 ft 356 kts 176°
2026-05-04 13:13 51.94584 13.39470 16642 ft 361 kts 176°
2026-05-04 13:13 51.92074 13.39954 17299 ft 365 kts 176°
2026-05-04 13:13 51.89535 13.40446 17954 ft 370 kts 176°
2026-05-04 13:14 51.86969 13.40948 18556 ft 374 kts 176°
2026-05-04 13:14 51.84376 13.41458 19125 ft 377 kts 176°
2026-05-04 13:14 51.81762 13.41972 19708 ft 380 kts 176°
2026-05-04 13:14 51.79129 13.42488 20290 ft 383 kts 176°
2026-05-04 13:15 51.76476 13.43007 20855 ft 385 kts 176°
2026-05-04 13:15 51.73811 13.43529 21404 ft 388 kts 176°
2026-05-04 13:15 51.71118 13.44052 21959 ft 391 kts 176°
2026-05-04 13:15 51.68406 13.44573 22499 ft 394 kts 176°
2026-05-04 13:16 51.65674 13.45101 23025 ft 397 kts 176°
2026-05-04 13:16 51.62920 13.45634 23542 ft 400 kts 177°
2026-05-04 13:16 51.60149 13.46167 23970 ft 402 kts 177°
2026-05-04 13:16 51.57364 13.46698 24383 ft 404 kts 177°
2026-05-04 13:17 51.54565 13.47228 24816 ft 405 kts 177°
2026-05-04 13:17 51.51753 13.47759 25205 ft 408 kts 177°
2026-05-04 13:17 51.48921 13.48300 25610 ft 411 kts 177°
2026-05-04 13:17 51.46070 13.48847 26016 ft 414 kts 177°
2026-05-04 13:18 51.43204 13.49397 26435 ft 416 kts 177°
2026-05-04 13:18 51.40323 13.49952 26844 ft 418 kts 177°
2026-05-04 13:18 51.37424 13.50509 27247 ft 421 kts 177°
2026-05-04 13:18 51.34510 13.51069 27621 ft 423 kts 177°
2026-05-04 13:19 51.31575 13.51628 27931 ft 426 kts 178°
2026-05-04 13:19 51.25788 13.52733 27972 ft 413 kts 177°
2026-05-04 13:19 51.22941 13.53275 27990 ft 412 kts 177°
2026-05-04 13:20 51.20107 13.53416 27995 ft 404 kts 190°
2026-05-04 13:20 51.17348 13.52652 27998 ft 402 kts 194°
2026-05-04 13:20 51.14601 13.51801 27998 ft 402 kts 195°
2026-05-04 13:20 51.11852 13.50940 27998 ft 403 kts 195°
2026-05-04 13:21 51.09103 13.50077 27991 ft 402 kts 195°
2026-05-04 13:21 51.06355 13.49217 27992 ft 402 kts 195°
2026-05-04 13:21 51.03611 13.48359 27998 ft 402 kts 195°
2026-05-04 13:21 51.00867 13.47501 27973 ft 402 kts 194°
2026-05-04 13:22 50.98124 13.46649 27971 ft 402 kts 194°
2026-05-04 13:22 50.95382 13.45804 27968 ft 402 kts 194°
2026-05-04 13:22 50.92638 13.44958 27970 ft 402 kts 194°
2026-05-04 13:22 50.89893 13.44112 27973 ft 402 kts 194°
2026-05-04 13:23 50.87148 13.43264 27966 ft 402 kts 194°
2026-05-04 13:23 50.84405 13.42417 27978 ft 402 kts 194°
2026-05-04 13:23 50.81660 13.41569 27965 ft 402 kts 194°
2026-05-04 13:23 50.78923 13.40722 27953 ft 401 kts 194°
2026-05-04 13:24 50.76181 13.39874 27956 ft 401 kts 194°
2026-05-04 13:24 50.73440 13.39028 27960 ft 401 kts 194°
2026-05-04 13:24 50.70697 13.38182 27956 ft 402 kts 194°
2026-05-04 13:25 50.65209 13.36493 27966 ft 402 kts 194°
2026-05-04 13:25 50.62463 13.35654 27960 ft 402 kts 194°
2026-05-04 13:25 50.59717 13.34821 27967 ft 402 kts 194°
2026-05-04 13:25 50.56970 13.33991 27974 ft 402 kts 194°
2026-05-04 13:26 50.54222 13.33159 27949 ft 402 kts 194°
2026-05-04 13:26 50.51476 13.32323 27952 ft 402 kts 194°
2026-05-04 13:26 50.48732 13.31483 27956 ft 402 kts 194°
2026-05-04 13:26 50.45987 13.30645 27960 ft 402 kts 194°
2026-05-04 13:27 50.43243 13.29807 27962 ft 402 kts 194°
2026-05-04 13:27 50.40498 13.28972 27968 ft 402 kts 194°
2026-05-04 13:27 50.37752 13.28136 27965 ft 403 kts 194°
2026-05-04 13:27 50.35002 13.27301 27967 ft 403 kts 194°
2026-05-04 13:28 50.32251 13.26471 27964 ft 402 kts 194°
2026-05-04 13:28 50.29507 13.25640 27962 ft 402 kts 194°
2026-05-04 13:28 50.26761 13.24808 27964 ft 402 kts 194°
2026-05-04 13:28 50.24016 13.23980 27963 ft 402 kts 194°
2026-05-04 13:29 50.21267 13.23159 27973 ft 402 kts 193°
2026-05-04 13:29 50.18519 13.22347 27968 ft 402 kts 193°
2026-05-04 13:29 50.15768 13.21534 27967 ft 403 kts 194°
2026-05-04 13:29 50.13009 13.20712 27965 ft 404 kts 194°
2026-05-04 13:30 50.10253 13.19893 27954 ft 403 kts 193°
2026-05-04 13:30 50.07502 13.19073 27952 ft 402 kts 194°
2026-05-04 13:30 50.04745 13.18241 27951 ft 404 kts 194°
2026-05-04 13:30 50.01983 13.17409 27960 ft 404 kts 194°
2026-05-04 13:31 49.99219 13.16591 27967 ft 405 kts 193°
2026-05-04 13:31 49.96448 13.15771 27975 ft 404 kts 194°
2026-05-04 13:31 49.93688 13.14953 27985 ft 404 kts 194°
2026-05-04 13:31 49.90937 13.14135 27992 ft 403 kts 194°
2026-05-04 13:32 49.88182 13.13315 27977 ft 403 kts 193°
2026-05-04 13:32 49.85426 13.12496 27977 ft 403 kts 193°
2026-05-04 13:32 49.82669 13.11679 27965 ft 404 kts 193°
2026-05-04 13:32 49.79908 13.10862 27966 ft 404 kts 193°
2026-05-04 13:33 49.77149 13.10050 27966 ft 404 kts 193°
2026-05-04 13:33 49.74389 13.09241 27965 ft 404 kts 193°
2026-05-04 13:33 49.71630 13.08432 27966 ft 404 kts 193°
2026-05-04 13:33 49.68874 13.07624 27967 ft 403 kts 193°
2026-05-04 13:34 49.66116 13.06813 27961 ft 403 kts 193°
2026-05-04 13:34 49.63359 13.06001 27960 ft 403 kts 193°
2026-05-04 13:34 49.60599 13.05194 27962 ft 404 kts 193°
2026-05-04 13:34 49.57840 13.04389 27964 ft 404 kts 193°
2026-05-04 13:35 49.55080 13.03587 27961 ft 404 kts 193°
2026-05-04 13:35 49.49561 13.01978 27961 ft 404 kts 193°
2026-05-04 13:35 49.46813 13.01172 27958 ft 403 kts 193°
2026-05-04 13:36 49.44062 13.00368 27950 ft 402 kts 194°
2026-05-04 13:36 49.41373 12.99233 27956 ft 400 kts 203°
2026-05-04 13:36 49.38836 12.97496 27959 ft 399 kts 207°
2026-05-04 13:36 49.36329 12.95658 27961 ft 399 kts 207°
2026-05-04 13:37 49.33820 12.93826 27965 ft 400 kts 207°
2026-05-04 13:37 49.31308 12.92000 27968 ft 399 kts 207°
2026-05-04 13:37 49.28799 12.90179 27969 ft 400 kts 207°
2026-05-04 13:37 49.27133 12.88970 27968 ft 400 kts 207°
2026-05-04 13:38 49.23772 12.86530 27959 ft 400 kts 207°
2026-05-04 13:38 49.21336 12.84502 27955 ft 398 kts 218°
2026-05-04 13:38 49.19278 12.81706 27959 ft 396 kts 225°
2026-05-04 13:38 49.17301 12.78781 27959 ft 396 kts 225°
2026-05-04 13:39 49.15329 12.75844 27959 ft 396 kts 225°
2026-05-04 13:39 49.13362 12.72902 27960 ft 396 kts 225°
2026-05-04 13:39 49.11393 12.69956 27964 ft 396 kts 225°
2026-05-04 13:39 49.09420 12.67018 27963 ft 396 kts 225°
2026-05-04 13:40 49.07443 12.64085 27896 ft 397 kts 225°
2026-05-04 13:40 49.05461 12.61153 27622 ft 397 kts 225°
2026-05-04 13:40 49.03486 12.58232 27267 ft 393 kts 225°
2026-05-04 13:40 49.01544 12.55358 26734 ft 388 kts 225°
2026-05-04 13:41 48.99619 12.52513 26206 ft 384 kts 225°
2026-05-04 13:41 48.97713 12.49703 25690 ft 379 kts 224°
2026-05-04 13:41 48.95827 12.46922 25186 ft 376 kts 224°
2026-05-04 13:42 48.92102 12.41437 24229 ft 370 kts 224°
2026-05-04 13:42 48.90256 12.38730 23773 ft 368 kts 224°
2026-05-04 13:42 48.88418 12.36040 23265 ft 365 kts 224°
2026-05-04 13:42 48.86598 12.33374 22816 ft 362 kts 224°
2026-05-04 13:43 48.84792 12.30736 22375 ft 358 kts 224°
2026-05-04 13:43 48.83003 12.28125 21935 ft 355 kts 224°
2026-05-04 13:43 48.81228 12.25534 21500 ft 353 kts 224°
2026-05-04 13:43 48.79464 12.22962 21053 ft 351 kts 224°
2026-05-04 13:44 48.77711 12.20407 20610 ft 349 kts 224°
2026-05-04 13:44 48.75968 12.17865 20163 ft 347 kts 224°
2026-05-04 13:44 48.74256 12.15374 19707 ft 345 kts 224°
2026-05-04 13:44 48.72533 12.12872 19248 ft 343 kts 224°
2026-05-04 13:45 48.70814 12.10377 18786 ft 342 kts 224°
2026-05-04 13:45 48.69077 12.07860 18317 ft 341 kts 223°
2026-05-04 13:45 48.67389 12.05416 17812 ft 340 kts 223°
2026-05-04 13:45 48.65684 12.02958 17352 ft 337 kts 223°
2026-05-04 13:46 48.63997 12.00520 16897 ft 334 kts 223°
2026-05-04 13:46 48.62324 11.98098 16457 ft 332 kts 223°
2026-05-04 13:46 48.60662 11.95697 16028 ft 330 kts 223°
2026-05-04 13:46 48.59010 11.93313 15579 ft 327 kts 223°
2026-05-04 13:47 48.57357 11.90930 15273 ft 321 kts 223°
2026-05-04 13:47 48.55779 11.88658 14725 ft 316 kts 223°
2026-05-04 13:47 48.54166 11.86338 14271 ft 314 kts 222°
2026-05-04 13:47 48.52592 11.84082 13759 ft 311 kts 222°
2026-05-04 13:48 48.51028 11.81844 13126 ft 309 kts 222°
2026-05-04 13:48 48.49474 11.79620 12499 ft 307 kts 223°
2026-05-04 13:48 48.47966 11.77461 12175 ft 296 kts 223°
2026-05-04 13:48 48.46520 11.75365 11849 ft 283 kts 226°
2026-05-04 13:49 48.45319 11.72996 11245 ft 280 kts 238°
2026-05-04 13:49 48.44515 11.70373 10650 ft 280 kts 249°
2026-05-04 13:49 48.44089 11.67526 10038 ft 279 kts 261°
2026-05-04 13:49 48.43876 11.64631 9364 ft 277 kts 261°
2026-05-04 13:50 48.43658 11.61752 8686 ft 279 kts 261°
2026-05-04 13:50 48.43430 11.58821 8305 ft 277 kts 261°
2026-05-04 13:50 48.43207 11.55990 7926 ft 276 kts 261°
2026-05-04 13:50 48.42977 11.53127 7522 ft 275 kts 261°
2026-05-04 13:51 48.42748 11.50278 7097 ft 273 kts 262°
2026-05-04 13:51 48.42517 11.47433 6710 ft 273 kts 261°
2026-05-04 13:51 48.42287 11.44605 6349 ft 270 kts 261°
2026-05-04 13:51 48.42069 11.41859 6226 ft 258 kts 262°
2026-05-04 13:52 48.40572 11.37376 5993 ft 238 kts 218°
2026-05-04 13:52 48.39109 11.36197 5974 ft 238 kts 195°
2026-05-04 13:52 48.37492 11.35995 5977 ft 238 kts 172°
2026-05-04 13:53 48.35926 11.36769 5973 ft 239 kts 150°
2026-05-04 13:53 48.34653 11.38358 5974 ft 240 kts 129°
2026-05-04 13:53 48.33842 11.40545 5968 ft 242 kts 109°
2026-05-04 13:54 48.33803 11.45518 5496 ft 238 kts 83°
2026-05-04 13:54 48.33942 11.47188 5286 ft 238 kts 83°
2026-05-04 13:54 48.34337 11.52092 4658 ft 232 kts 83°
2026-05-04 13:55 48.34524 11.54435 4350 ft 221 kts 82°
2026-05-04 13:55 48.34870 11.58812 3819 ft 201 kts 82°
2026-05-04 13:55 48.35031 11.60844 3570 ft 189 kts 82°
2026-05-04 13:56 48.35182 11.62757 3341 ft 179 kts 82°
2026-05-04 13:56 48.35323 11.64556 3100 ft 170 kts 82°
2026-05-04 13:56 48.35584 11.67900 2669 ft 147 kts 82°
2026-05-04 13:57 48.35699 11.69367 2471 ft 140 kts 81°
2026-05-04 13:57 48.35812 11.70802 2274 ft 138 kts 80°
2026-05-04 13:58 48.36144 11.75066 1736 ft 133 kts 82°
2026-05-04 13:58 48.36355 11.77730 1474 ft 102 kts 83°
2026-05-04 13:58 48.36401 11.78424 1481 ft 43 kts 85°
2026-05-04 13:59 48.36369 11.78839 1484 ft 38 kts 113°
2026-05-04 13:59 48.36277 11.79191 1475 ft 29 kts 112°
2026-05-04 13:59 48.36081 11.79483 1485 ft 20 kts 174°
2026-05-04 14:00 48.35933 11.79507 1475 ft 22 kts 174°
2026-05-04 14:00 48.35723 11.79561 1474 ft 8 kts 127°
2026-05-04 14:00 48.35725 11.79641 1485 ft 8 kts 83°
2026-05-04 14:01 48.35731 11.79698 1485 ft 2 kts 81°
2026-05-04 14:01 48.35731 11.79699 1485 ft 0 kts 81°